Погода в Благодатном

Украина / Донецкая область     47°42′06″N   37°24′56″E
темп.,
°C
ветер,
м/с
пор.,
м/с
влажн.,
%
обл.,
%
осадки,
мм/ч
давл.,
гПа
погр.,
м
26 октября, вт
вт2600:00+1в12520 0.0 103410
03:000в22520 0.0 103410
06:00−1в22550 0.0 103510
09:00+3вюв23443 0.0 1035207
12:00+7юв32325 0.0 1034819
15:00+8юв22271 0.0 1032937
18:00+5юв33365 0.0 103219
21:00+3ююв33425 0.0 103227
27 октября, ср
ср2700:00+2юв33495 0.0 103129
03:00+1юв34495 0.0 103145
06:000юв33565 0.0 103026
09:00+3юв35470 0.0 1030197
12:00+9ююв34290 0.0 1027616
15:00+11ю23240 0.0 1025830
18:00+6ю22330 0.0 102514
21:00+4юз33400 0.0 102521
28 октября, чт
чт2800:00+3зсз2241100 0.0 102513
03:00+3зсз3352100 0.0 102527
06:00+3зсз3362100 0.0 102533
09:00+6з3462100 0.0 1025153
12:00+11з4651100 0.0 1024598
15:00+13з564510 0.0 10221036
18:00+10зюз495799 0.0 1022153
21:00+9зюз5136293 0.0 1022297
29 октября, пт
пт2900:00+9з5116882 0.0 1021229
03:00+10зсз497664 0.0 1021299
06:00+8сз359255 0.0 102388
09:00+9ссз47825 0.0 1025285
12:00+13ссв565082 0.0 10261398
15:00+14ссв555249 0.0 10271346
18:00+9св36680 0.0 1029125
21:00+6всв38740 0.0 1031150
30 октября, сб
сб3000:00+4в37740 0.0 1033129
03:00+3в35750 0.0 103476
06:00+2в36783 0.0 103594
09:00+4в47660 0.0 1036292
12:00+9вюв56410 0.0 1035688
15:00+10в45310 0.0 1034763
18:00+6вюв36390 0.0 103581
21:00+4вюв49420 0.0 1035158